Temperature
16 14 14 13 13 15 15 14 13 12 12 9 8 10 12 13 11 11 12 14 15 17 17 16 15 14 13 12 11 11 10 9 8 7 7 6 6 6 5 4 4 3 2 2
14 14 14 14 13 13 14 14 12 12 11 10 9 9 11 11 11 12 12 14 17 18 18 17 16 15 14 13 12 12 11 10 9 9 8 7 6 5 4 4 4 3 2 2
15 15 15 15 14 14 14 13 13 13 13 11 10 11 11 12 11 11 13 15 17 19 19 19 18 16 16 15 14 14 13 12 11 9 8 6 5 5 4 4 4 3 3 2
14 14 15 15 14 14 13 13 13 14 12 10 11 11 12 12 11 11 14 16 19 20 20 20 19 18 17 17 16 15 14 13 12 10 9 7 7 6 6 5 4 3 2 2
14 14 14 14 14 13 13 13 13 12 12 10 10 10 12 11 13 14 14 18 21 21 21 21 20 20 19 18 17 16 15 14 13 12 10 9 7 7 5 4 3 3 2 2
13 14 14 13 13 13 13 12 10 8 8 10 10 9 11 12 13 14 14 18 19 21 21 21 21 20 19 18 18 17 16 15 14 13 11 10 8 7 5 4 4 3 2 2
13 14 13 14 13 13 13 12 11 12 11 11 10 9 11 14 13 12 13 17 18 19 19 21 21 20 20 19 18 18 17 16 15 14 13 11 9 7 6 5 4 3 2 2
14 13 14 13 13 13 12 12 12 13 12 10 10 10 12 13 13 14 15 16 19 20 20 20 20 20 20 19 19 18 17 17 16 15 14 12 10 8 6 5 4 3 3 2
13 13 13 12 12 12 12 11 11 10 10 9 9 10 11 13 14 14 16 17 19 20 20 20 20 20 19 19 19 18 17 17 16 15 14 13 11 9 7 5 4 3 2 2
13 13 13 12 12 12 12 10 8 10 11 10 10 10 12 15 15 14 13 16 18 19 19 19 19 19 19 19 18 18 17 17 16 15 14 13 12 10 8 6 4 3 2 1
12 13 12 12 11 12 10 10 10 8 8 9 9 11 12 13 13 13 13 16 17 18 18 18 17 17 18 18 18 18 17 17 16 15 14 13 12 10 8 6 4 3 2 1
11 10 10 11 11 10 10 10 9 10 10 7 7 11 13 12 12 12 13 15 17 17 16 16 16 16 17 17 17 17 17 16 16 15 14 13 11 10 8 6 5 3 2 1
10 10 11 12 12 10 10 9 8 9 8 6 7 12 13 12 12 14 15 15 15 15 15 16 16 16 16 16 16 16 16 16 15 14 13 12 11 10 9 7 5 3 2 1
10 9 11 12 12 12 11 10 8 9 9 8 9 12 14 14 14 14 15 15 14 14 15 15 15 15 16 16 16 16 15 15 15 14 13 13 12 11 9 7 5 3 2 1
8 9 8 9 9 9 9 10 10 9 10 10 12 12 14 14 13 13 14 13 13 14 14 15 15 15 15 15 15 15 15 15 14 14 14 13 12 10 8 6 4 3 1 1
7 8 8 8 9 9 8 9 10 10 10 10 10 11 13 13 12 12 12 12 12 13 14 14 14 14 14 15 14 14 14 14 14 14 14 13 11 10 8 6 4 2 1 0
6 6 7 7 8 8 8 9 10 10 9 9 10 11 11 10 10 11 12 12 12 13 13 13 13 13 13 14 14 14 14 13 13 13 13 12 11 9 8 5 3 2 1 0
5 5 6 5 8 7 11 11 10 10 10 9 10 10 10 10 12 13 13 12 12 12 12 12 12 12 12 13 13 12 12 12 12 12 12 12 10 9 6 3 2 1 0 -0
5 6 6 5 5 7 8 9 9 9 9 10 10 10 11 11 10 12 12 12 11 11 11 11 11 11 11 12 11 11 11 11 11 11 11 10 9 7 5 3 2 1 -0 -0
4 5 5 4 5 6 9 11 11 10 9 11 11 10 10 9 7 9 11 10 10 10 10 10 10 10 11 11 10 10 10 10 10 10 9 8 7 6 5 4 2 0 -1 -1
4 3 3 4 4 6 8 8 10 9 10 12 11 11 10 8 8 10 10 10 10 10 10 9 9 9 10 9 9 9 9 9 8 8 8 7 7 5 4 2 1 -0 -1 -1
5 4 3 3 4 6 8 8 9 10 11 11 11 11 10 9 9 9 9 9 9 9 9 8 8 8 9 9 8 8 8 8 7 7 7 7 6 4 3 1 -0 -1 -2 -2
5 6 6 5 8 9 10 10 11 11 10 10 10 10 9 9 8 8 8 8 8 8 8 8 7 7 8 8 7 7 7 6 6 6 6 6 5 4 2 0 -1 -2 -2 -3
6 6 5 5 6 8 10 10 11 11 10 10 9 9 8 8 7 7 7 7 7 7 7 7 7 6 7 7 6 6 6 5 5 6 5 5 4 2 1 -1 -2 -2 -2 -2
7 6 5 6 7 8 9 9 10 10 9 9 8 8 7 7 6 6 6 6 6 6 6 6 5 5 5 5 5 5 4 4 4 5 5 4 3 1 -0 -1 -2 -2 -2 -1
6 7 6 7 8 7 8 9 8 8 8 7 7 7 6 6 5 5 6 6 6 5 5 5 4 4 4 3 3 3 3 3 3 4 4 3 2 0 -1 -2 -3 -3 -3 -3
Wind_Speed
4 3 4 8 8 5 3 5 8 9 4 7 12 19 25 16 11 16 17 14 16 19 15 11 14 14 13 15 17 18 18 15 12 7 7 6 6 6 8 15 19 20 20 19
4 5 8 4 4 4 4 5 8 8 3 6 9 16 19 14 12 16 16 16 17 15 10 12 13 15 18 19 19 19 20 19 17 13 8 5 4 5 8 13 17 20 20 20
7 5 2 4 4 4 5 6 7 7 5 4 7 12 10 8 6 8 11 12 11 15 16 13 15 17 18 20 23 21 22 20 19 14 8 4 3 3 5 7 9 17 20 20
6 5 3 4 5 6 7 7 5 3 4 6 4 8 11 9 10 10 12 12 14 15 14 13 14 15 21 23 19 20 20 20 19 17 16 14 12 11 11 8 9 13 19 19
6 3 5 7 6 7 7 1 1 1 2 5 3 5 12 8 10 12 11 12 14 14 14 15 17 19 19 17 17 18 17 19 19 20 21 19 16 11 6 6 9 9 13 17
7 3 4 5 1 2 3 4 4 5 4 4 4 6 9 7 10 10 9 9 10 11 11 13 12 12 13 12 14 15 18 19 19 21 20 21 19 13 10 10 10 10 7 9
7 4 1 2 2 3 3 4 5 6 3 6 3 5 11 16 11 10 13 14 12 9 9 10 11 12 13 14 16 16 19 20 20 21 22 22 19 17 18 15 14 12 9 9
4 7 3 3 5 4 4 5 4 4 6 7 3 8 10 14 11 10 11 12 13 12 9 10 10 11 12 13 14 16 19 20 19 21 22 19 17 14 13 14 12 13 12 11
4 6 1 1 2 7 4 4 4 3 4 5 8 9 12 12 9 8 8 9 11 12 11 11 10 10 11 12 15 17 18 18 19 20 19 18 18 17 15 14 13 11 10 10
6 6 4 1 2 1 2 6 5 2 4 6 8 7 6 11 13 12 12 12 11 11 11 11 10 10 10 11 12 13 17 18 17 17 18 17 17 18 15 13 15 14 13 11
5 4 5 3 5 7 5 4 4 3 3 4 6 8 8 11 13 13 14 13 12 13 13 12 11 9 8 9 10 13 15 15 15 17 17 17 17 16 15 15 16 15 14 14
3 4 4 7 2 4 7 7 8 4 6 6 5 11 12 12 12 11 13 13 13 14 13 12 11 9 7 8 8 10 12 14 15 14 15 16 15 16 17 18 17 15 15 14
5 4 4 7 3 1 2 4 6 4 2 5 6 12 7 9 12 13 13 14 13 13 13 11 10 9 7 7 7 9 11 13 11 12 14 16 17 18 20 19 17 16 16 14
5 4 7 9 9 4 5 6 7 7 6 8 13 21 24 23 20 20 17 14 13 12 12 10 10 9 8 7 7 9 11 11 12 13 16 19 21 21 20 18 17 17 16 15
4 5 7 9 11 7 8 12 11 13 14 15 21 22 28 23 17 15 13 12 12 12 12 11 10 9 8 7 7 9 11 11 13 15 18 21 18 17 17 17 16 15 15 15
3 5 4 7 10 9 9 15 20 20 16 16 22 24 21 13 9 10 11 10 10 11 12 12 11 11 10 9 9 9 11 12 13 17 19 17 15 16 17 16 15 15 15 13
6 7 4 7 5 6 10 15 18 10 9 10 14 13 9 11 13 12 11 9 9 11 12 12 12 12 12 11 10 10 11 10 13 16 16 15 15 16 16 16 15 16 15 13
8 6 4 4 1 10 10 6 9 11 13 12 11 11 11 12 12 10 8 5 10 11 12 13 12 12 12 11 10 9 8 9 12 14 15 14 14 15 13 13 15 14 12 13
8 8 5 3 6 11 10 10 7 8 9 7 7 9 9 8 7 6 4 4 9 11 13 13 12 13 12 13 11 9 9 9 11 15 15 13 13 13 14 15 16 14 13 13
3 4 5 5 6 9 10 5 0 1 7 5 3 5 8 7 9 8 10 12 13 13 12 11 11 11 12 13 9 8 10 10 13 14 13 11 13 15 17 17 15 12 12 13
3 3 6 8 9 11 10 5 0 4 7 3 4 8 8 6 8 10 13 14 13 13 13 12 11 11 12 11 8 10 11 13 13 10 9 10 12 14 14 13 12 11 12 12
8 6 8 6 7 11 7 4 6 8 7 8 10 10 11 11 12 12 12 12 12 12 11 11 10 12 13 11 9 11 14 13 11 9 9 10 11 12 12 11 12 12 13 12
9 9 7 11 11 8 5 8 9 9 13 14 12 12 11 12 13 12 10 10 11 11 11 10 10 13 14 11 9 12 14 12 11 9 10 9 10 11 11 12 13 12 12 11
7 7 7 9 13 14 14 13 14 16 18 14 11 11 11 12 11 10 9 9 10 10 11 10 11 14 16 14 12 12 14 12 11 11 9 7 8 9 10 11 12 12 13 13
7 6 9 17 16 14 13 13 14 13 12 12 11 9 7 7 7 7 8 10 10 11 10 10 12 14 16 15 15 14 12 11 11 10 8 7 8 9 10 12 12 13 13 15
11 16 18 24 17 16 17 12 13 14 13 10 8 6 5 4 7 8 9 10 11 12 12 12 13 14 16 15 16 15 12 10 10 9 7 6 7 8 9 9 10 19 18 21
Wind_Direction
33 60 238 230 212 215 208 235 264 264 212 195 241 260 270 267 231 244 246 240 237 240 238 210 205 202 198 198 200 201 201 196 184 180 184 187 205 202 201 205 204 202 202 201
19 269 244 216 176 194 219 261 271 282 207 211 277 276 272 265 239 235 238 235 234 238 233 210 201 199 202 204 204 204 205 199 196 197 184 176 173 190 202 202 203 204 202 201
223 249 184 166 185 210 237 226 249 271 323 270 306 298 290 292 252 250 238 235 232 230 233 217 205 205 205 208 207 207 206 202 199 190 171 149 136 142 176 198 203 203 201 201
253 262 199 214 233 197 262 244 232 281 325 300 357 303 293 291 298 268 248 234 235 232 230 220 208 208 210 213 207 207 203 202 198 188 191 189 196 201 199 192 193 194 198 200
269 227 202 227 239 192 229 28 76 324 245 304 268 235 286 309 288 275 261 242 237 231 224 223 216 215 215 210 204 205 202 203 198 196 199 201 208 205 176 175 183 191 196 201
250 254 207 216 53 144 129 62 55 54 72 295 242 193 283 271 250 281 295 284 267 254 237 234 227 216 214 202 200 199 201 206 200 200 203 206 208 194 180 186 190 195 196 201
316 299 247 146 115 35 91 66 348 339 345 261 197 212 254 261 256 260 281 294 299 287 260 246 232 220 216 204 202 200 202 208 203 203 207 210 209 199 199 195 196 193 196 203
312 305 242 200 198 191 180 158 180 258 266 288 272 239 257 271 288 274 270 281 295 293 279 263 247 232 223 211 203 201 206 210 204 205 210 210 206 204 207 201 195 197 201 204
214 274 325 162 200 156 161 201 177 168 280 281 277 288 297 292 316 325 313 307 302 302 298 281 266 242 227 216 209 206 208 211 208 208 208 208 206 207 206 199 197 198 198 196
180 265 297 354 80 17 170 158 110 147 280 285 289 280 259 293 303 315 318 315 310 310 303 290 275 255 234 220 210 203 208 212 211 207 207 210 209 209 205 197 198 199 198 194
180 219 299 316 212 207 149 161 160 169 198 226 279 269 240 249 270 287 296 299 298 298 295 289 282 270 246 222 207 206 209 211 211 209 208 211 208 206 204 204 204 201 197 195
151 139 269 269 244 174 182 193 162 192 246 208 245 270 258 260 276 281 285 291 293 292 292 292 290 284 261 234 217 213 213 215 216 209 208 212 209 204 207 210 206 199 198 197
137 118 340 338 354 77 228 213 194 188 188 207 226 269 275 291 297 294 293 297 300 302 305 308 307 299 278 249 226 220 219 221 214 206 209 212 213 210 212 211 205 199 197 196
132 173 202 233 253 254 237 234 197 188 224 242 237 263 283 290 297 306 312 312 310 308 310 315 317 313 297 265 236 227 228 219 211 208 213 217 217 216 215 211 204 200 196 195
128 228 242 255 269 271 247 252 235 219 226 242 264 269 278 289 302 305 307 313 317 321 326 327 322 318 310 286 253 235 232 220 211 213 219 224 222 218 215 210 204 198 195 196
146 223 251 264 257 256 256 251 251 249 244 244 263 273 277 294 304 305 308 314 320 325 325 322 320 317 310 293 269 246 237 223 211 219 226 226 220 217 214 210 202 197 194 191
194 198 234 267 275 309 267 241 240 233 221 216 244 259 307 323 319 312 309 318 321 320 315 312 310 303 297 289 272 257 246 224 216 225 230 226 219 218 215 208 201 198 193 188
176 174 218 281 343 240 246 246 228 235 250 236 248 275 294 290 290 284 275 300 322 318 311 307 302 299 296 290 283 270 254 230 227 233 234 227 219 219 213 206 205 199 192 191
178 168 205 225 253 271 287 272 225 216 270 250 237 269 286 293 310 292 256 294 300 297 293 290 290 291 292 293 291 281 265 245 238 241 239 228 215 213 208 207 205 198 190 192
111 161 190 199 226 254 251 259 67 146 281 270 213 295 306 333 335 301 306 313 307 301 298 298 301 301 300 300 303 288 276 261 252 249 243 227 214 212 211 209 204 196 193 195
141 175 204 220 237 263 261 282 139 209 254 300 298 301 301 285 263 277 296 303 302 304 306 309 311 309 305 308 310 290 283 273 268 259 243 225 214 214 213 207 198 189 191 191
196 202 211 203 221 256 248 169 201 244 289 301 302 300 297 292 291 298 301 300 304 307 309 314 315 312 310 311 305 292 287 283 277 259 241 226 214 208 206 199 194 188 188 190
211 207 211 208 228 250 232 232 260 285 290 291 289 290 292 294 297 302 301 304 306 306 307 310 310 310 311 309 300 293 294 294 286 268 248 230 211 202 196 194 193 190 190 194
233 219 233 254 259 262 268 271 275 276 279 282 279 281 285 288 293 297 299 300 304 302 307 310 314 313 311 311 305 292 293 294 285 272 256 227 208 201 196 196 196 196 197 198
223 233 247 262 272 279 261 259 267 275 279 282 284 285 286 289 292 291 295 297 299 301 302 306 306 304 304 307 305 301 297 296 286 274 257 228 211 201 200 203 206 206 209 204
222 245 257 267 271 274 282 279 281 284 284 284 287 294 298 289 288 293 293 294 296 300 302 304 302 301 303 305 303 302 300 294 284 278 257 229 212 204 202 206 216 223 218 222
Height
1551 1554 1557 1555 1554 1553 1553 1555 1558 1552 1546 1551 1548 1537 1522 1515 1517 1513 1510 1509 1510 1510 1513 1517 1519 1522 1523 1525 1526 1528 1530 1531 1534 1535 1535 1536 1536 1539 1539 1540 1540 1539 1538 1537
1554 1556 1550 1549 1551 1552 1553 1555 1555 1549 1545 1548 1544 1533 1515 1506 1504 1500 1499 1499 1500 1502 1505 1508 1511 1513 1515 1516 1518 1520 1521 1523 1524 1526 1528 1529 1531 1531 1533 1533 1533 1532 1532 1531
1553 1549 1546 1548 1550 1552 1552 1554 1551 1549 1545 1545 1545 1529 1512 1501 1497 1493 1492 1491 1492 1495 1497 1501 1503 1505 1507 1508 1509 1511 1513 1514 1516 1518 1520 1521 1522 1522 1523 1524 1525 1525 1525 1524
1550 1547 1546 1548 1549 1550 1555 1547 1547 1547 1551 1553 1548 1545 1513 1503 1496 1488 1485 1484 1485 1488 1491 1493 1495 1497 1499 1500 1502 1504 1505 1506 1508 1509 1510 1510 1510 1511 1514 1517 1519 1518 1518 1517
1549 1545 1546 1548 1547 1547 1547 1545 1547 1548 1551 1555 1551 1551 1521 1507 1497 1483 1478 1478 1479 1482 1485 1487 1488 1490 1492 1494 1495 1496 1497 1498 1499 1499 1500 1501 1501 1503 1507 1509 1510 1510 1510 1510
1546 1543 1543 1544 1544 1544 1545 1548 1552 1557 1559 1559 1549 1555 1531 1507 1493 1484 1478 1476 1477 1478 1480 1481 1483 1484 1485 1487 1487 1488 1489 1489 1490 1490 1491 1491 1492 1494 1497 1499 1501 1502 1503 1503
1548 1544 1542 1543 1545 1546 1547 1554 1561 1557 1559 1554 1546 1548 1527 1493 1486 1485 1480 1476 1476 1476 1476 1476 1477 1478 1479 1480 1480 1481 1481 1481 1481 1481 1481 1482 1483 1485 1488 1491 1493 1494 1494 1494
1554 1552 1543 1543 1544 1547 1549 1552 1561 1561 1561 1554 1544 1542 1512 1486 1483 1481 1479 1476 1474 1473 1473 1473 1473 1474 1474 1474 1475 1475 1474 1474 1474 1473 1473 1474 1475 1476 1478 1481 1484 1485 1486 1487
1553 1551 1543 1542 1542 1545 1549 1553 1553 1560 1559 1561 1547 1532 1509 1484 1480 1478 1476 1475 1473 1472 1471 1471 1470 1470 1469 1469 1468 1468 1468 1467 1467 1466 1466 1466 1466 1467 1469 1472 1474 1476 1477 1479
1547 1550 1544 1543 1544 1544 1545 1550 1559 1558 1560 1558 1547 1536 1516 1493 1483 1478 1476 1474 1472 1471 1470 1468 1467 1465 1463 1462 1462 1461 1460 1460 1459 1459 1458 1457 1458 1458 1460 1462 1464 1466 1468 1469
1545 1550 1547 1545 1545 1544 1549 1551 1552 1558 1560 1560 1555 1532 1499 1491 1482 1480 1476 1472 1471 1468 1465 1462 1460 1457 1455 1454 1453 1452 1452 1451 1451 1450 1449 1449 1448 1449 1450 1451 1453 1456 1458 1459
1546 1553 1553 1546 1541 1541 1543 1545 1550 1554 1552 1559 1558 1525 1488 1483 1478 1477 1474 1471 1468 1465 1461 1457 1453 1450 1447 1446 1445 1445 1444 1444 1443 1442 1441 1440 1439 1439 1439 1440 1442 1445 1447 1449
1547 1552 1554 1547 1546 1544 1543 1543 1545 1546 1550 1556 1553 1514 1483 1479 1475 1473 1472 1468 1464 1460 1455 1451 1448 1445 1443 1441 1440 1439 1438 1437 1436 1434 1432 1431 1429 1428 1428 1429 1431 1434 1436 1438
1544 1550 1552 1549 1541 1538 1539 1539 1542 1543 1545 1541 1528 1502 1483 1477 1474 1471 1468 1465 1461 1457 1453 1449 1446 1443 1441 1438 1437 1435 1433 1431 1429 1427 1424 1421 1419 1417 1417 1418 1420 1423 1426 1428
1544 1549 1547 1542 1537 1538 1537 1534 1532 1532 1525 1522 1501 1494 1480 1474 1474 1471 1466 1462 1458 1454 1451 1448 1445 1443 1440 1437 1434 1432 1429 1426 1422 1418 1415 1411 1409 1407 1407 1407 1409 1412 1415 1419
1544 1546 1543 1539 1533 1532 1532 1525 1518 1513 1510 1506 1497 1488 1474 1475 1472 1468 1464 1461 1457 1454 1451 1448 1445 1441 1438 1434 1431 1427 1423 1419 1415 1410 1406 1403 1399 1397 1396 1396 1399 1402 1405 1409
1543 1545 1543 1538 1531 1529 1527 1509 1502 1501 1496 1496 1491 1480 1473 1473 1469 1465 1462 1459 1457 1454 1451 1447 1443 1439 1434 1430 1426 1421 1417 1412 1407 1402 1398 1394 1390 1387 1386 1387 1388 1391 1396 1400
1537 1541 1543 1543 1532 1531 1503 1491 1491 1491 1485 1482 1479 1476 1474 1472 1467 1463 1461 1458 1455 1451 1447 1442 1438 1433 1428 1424 1419 1414 1409 1404 1399 1394 1390 1386 1381 1378 1378 1378 1380 1383 1388 1392
1528 1534 1538 1543 1537 1517 1503 1489 1485 1487 1482 1474 1474 1473 1471 1468 1463 1459 1458 1456 1452 1447 1442 1437 1432 1427 1421 1417 1411 1406 1401 1395 1390 1386 1381 1377 1373 1370 1369 1369 1370 1374 1378 1383
1528 1529 1535 1539 1537 1518 1494 1482 1480 1482 1483 1471 1471 1470 1468 1464 1465 1457 1452 1448 1443 1439 1434 1429 1424 1419 1414 1409 1404 1398 1392 1387 1382 1377 1373 1369 1365 1362 1360 1360 1362 1365 1370 1374
1530 1533 1535 1533 1529 1505 1486 1481 1481 1487 1479 1470 1468 1466 1464 1462 1459 1453 1448 1443 1438 1433 1428 1423 1417 1412 1408 1403 1397 1390 1385 1380 1374 1369 1364 1360 1356 1354 1352 1352 1353 1356 1361 1366
1520 1525 1529 1526 1524 1505 1478 1480 1480 1476 1469 1467 1464 1461 1457 1453 1449 1445 1441 1436 1432 1427 1422 1417 1411 1406 1402 1396 1389 1382 1377 1372 1366 1360 1355 1351 1348 1346 1344 1344 1345 1348 1352 1357
1511 1506 1504 1503 1491 1477 1474 1473 1471 1469 1465 1462 1459 1455 1453 1448 1443 1439 1435 1430 1426 1421 1416 1411 1405 1399 1394 1389 1383 1375 1369 1363 1357 1352 1347 1343 1339 1337 1336 1336 1337 1340 1343 1348
1497 1495 1495 1490 1477 1472 1469 1467 1466 1464 1460 1456 1453 1450 1446 1441 1437 1433 1429 1425 1420 1415 1410 1404 1398 1391 1385 1381 1375 1368 1361 1355 1349 1344 1339 1335 1332 1329 1328 1328 1329 1331 1334 1338
1490 1489 1486 1477 1469 1464 1460 1460 1458 1455 1453 1450 1446 1443 1439 1435 1431 1428 1424 1419 1414 1409 1403 1397 1391 1384 1377 1372 1366 1360 1354 1347 1341 1336 1332 1328 1324 1322 1321 1321 1322 1323 1326 1331
1482 1480 1477 1464 1462 1460 1453 1454 1452 1448 1444 1441 1438 1435 1433 1430 1427 1423 1419 1414 1408 1402 1396 1390 1383 1377 1370 1364 1358 1352 1347 1341 1335 1329 1325 1321 1318 1316 1314 1315 1315 1317 1320 1325